Tracking 19909 objects as of 21-Oct-2019
HD Live streaming from Space Station
objects crossing your sky now

THORAD AGENA D DEB

Track THORAD AGENA D DEB now!
10-day predictions


NORAD ID: 5024
Int'l Code: 1970-025HY
Perigee: 775.6 km
Apogee: 909.7 km
Inclination: 99.9 °
Period: 101.6 minutes
Semi major axis: 7213 km
RCS: 0.0419 m2 (small)
Launch date: April 8, 1970
Source: United States (US)
Launch site: AIR FORCE WESTERN TEST RANGE (AFWTR)

Note: This is SATELLITE DEBRIS
aabbcc
Your satellite tracking list
Your tracking list is empty




NASA's NSSDC Master Catalog

Two Line Element Set (TLE):
1  5024U 70025HY  19293.05059680  .00000369  00000-0  20110-3 0  9997
2  5024  99.8514 318.0685 0092955  52.1014 308.8517 14.17008856527199
Source of the keplerian elements: AFSPC